This demonstration page uses our WeatherBlox Daily Observations layout. Learn more.

Left ArrowRight Arrow

Hourly Observations for April 4, 2019

Temp ( °F °C ) Dew Point ( °F °C ) Humidity (%) Winds ( mph kmh ) Pressure ( in mb ) Visibility ( mi km ) Precip ( " mm )
12:53 am 00:53 Clear 59 15 51 10.6 75 75 SE 9 15 29.83 1010 10 16 0.00 0.00
1:53 am 01:53 Clear 57 13.9 51 10.6 81 81 E 3 6 29.85 1011 10 16 0.00 0.00
2:53 am 02:53 Clear 53 11.7 50 10 89 89 NE 3 6 29.87 1012 10 16 0.00 0.00
3:53 am 03:53 Clear 50 10 40 4.4 68 68 NNW 9 15 29.89 1012 10 16 0.00 0.00
4:53 am 04:53 Clear 47 8.3 30 -1.1 52 52 N 9 15 29.91 1013 10 16 0.00 0.00
5:53 am 05:53 Clear 46 7.8 30 -1.1 54 54 N 6 9 29.93 1014 10 16 0.00 0.00
6:53 am 06:53 Clear 46 7.8 30 -1.1 54 54 N 5 7 29.96 1014 10 16 0.00 0.00
7:53 am 07:53 Sunny 45 7.2 29 -1.7 54 54 Calm 29.98 1015 10 16 0.00 0.00
8:53 am 08:53 Sunny 52 11.1 32 0 47 47 SW 5 7 30.01 1016 10 16 0.00 0.00
9:53 am 09:53 Sunny 62 16.7 31 -0.6 31 31 SSW 5 7 30.02 1017 10 16 0.00 0.00
10:53 am 10:53 Sunny 72 22.2 30 -1.1 21 21 NW 7 11 30.02 1017 10 16 0.00 0.00
11:53 am 11:53 Sunny 77 25 26 -3.3 15 15 N 13 20 30.01 1016 10 16 0.00 0.00
12:53 pm 12:53 Sunny 79 26.1 25 -3.9 14 14 W 10 17 29.99 1016 10 16 0.00 0.00
1:53 pm 13:53 Sunny 79 26.1 24 -4.4 13 13 W 12 19 29.97 1015 10 16 0.00 0.00
2:53 pm 14:53 Sunny 80 26.7 22 -5.6 11 11 W 12 19 29.95 1014 10 16 0.00 0.00
3:53 pm 15:53 Sunny 81 27.2 21 -6.1 11 11 W 10 17 29.93 1013 10 16 0.00 0.00
4:53 pm 16:53 Sunny 82 27.8 20 -6.7 10 10 W 5 7 29.91 1013 10 16 0.00 0.00
5:53 pm 17:53 Sunny 81 27.2 20 -6.7 10 10 VRB 5 7 29.89 1012 10 16 0.00 0.00
6:53 pm 18:53 Sunny 80 26.7 20 -6.7 10 10 WSW 3 6 29.89 1012 10 16 0.00 0.00
7:53 pm 19:53 Sunny 79 26.1 19 -7.2 10 10 Calm 29.89 1012 10 16 0.00 0.00
8:53 pm 20:53 Clear 73 22.8 21 -6.1 14 14 ESE 5 7 29.90 1012 10 16 0.00 0.00
9:53 pm 21:53 Clear 68 20 25 -3.9 20 20 ESE 6 9 29.90 1013 10 16 0.00 0.00
10:53 pm 22:53 Clear 65 18.3 24 -4.4 21 21 SE 6 9 29.90 1012 10 16 0.00 0.00
11:53 pm 23:53 Clear 61 16.1 24 -4.4 24 24 SE 6 9 29.89 1012 10 16 0.00 0.00

Powered by AerisWeather